QPF
0.11 0.11 0.10 0.11 0.10 0.07 0.09 0.10 0.09 0.09 0.10 0.13 0.13 0.08 0.06 0.06 0.05 0.03 0.03 0.03 0.04 0.03 0.03 0.04 0.04 0.04 0.04 0.03 0.02 0.02 0.03 0.03 0.04 0.04 0.06 0.06 0.06 0.05 0.04 0.04 0.05 0.05 0.05
0.07 0.08 0.08 0.06 0.04 0.04 0.05 0.05 0.05 0.04 0.06 0.06 0.06 0.04 0.05 0.05 0.04 0.04 0.03 0.03 0.03 0.03 0.03 0.03 0.03 0.03 0.02 0.02 0.02 0.03 0.03 0.03 0.04 0.05 0.07 0.06 0.07 0.07 0.06 0.04 0.04 0.04 0.04
0.09 0.09 0.06 0.04 0.03 0.02 0.03 0.04 0.04 0.04 0.04 0.04 0.04 0.03 0.03 0.03 0.03 0.03 0.03 0.03 0.03 0.03 0.03 0.03 0.03 0.03 0.02 0.02 0.03 0.04 0.04 0.04 0.05 0.06 0.09 0.09 0.06 0.06 0.05 0.03 0.03 0.04 0.05
0.11 0.11 0.06 0.03 0.02 0.02 0.02 0.03 0.03 0.04 0.03 0.03 0.03 0.03 0.03 0.02 0.03 0.03 0.03 0.04 0.03 0.03 0.03 0.04 0.04 0.04 0.04 0.04 0.04 0.04 0.04 0.05 0.05 0.05 0.06 0.08 0.06 0.06 0.05 0.06 0.05 0.05 0.06
0.09 0.08 0.05 0.03 0.03 0.02 0.01 0.01 0.01 0.02 0.03 0.03 0.03 0.03 0.02 0.02 0.02 0.02 0.02 0.03 0.03 0.03 0.03 0.04 0.04 0.04 0.05 0.04 0.04 0.03 0.04 0.04 0.04 0.04 0.05 0.07 0.08 0.08 0.07 0.08 0.08 0.08 0.08
0.05 0.04 0.03 0.02 0.02 0.01 0.01 0.01 0.01 0.02 0.03 0.02 0.01 0.02 0.02 0.01 0.01 0.01 0.02 0.03 0.03 0.03 0.03 0.03 0.03 0.03 0.02 0.02 0.02 0.03 0.04 0.04 0.04 0.04 0.05 0.06 0.06 0.08 0.09 0.08 0.08 0.09 0.10
0.03 0.03 0.03 0.02 0.02 0.01 0.01 0.01 0.01 0.01 0.01 0.01 0.02 0.02 0.01 0.01 0.01 0.01 0.02 0.03 0.03 0.03 0.03 0.02 0.03 0.03 0.02 0.02 0.02 0.02 0.02 0.03 0.03 0.03 0.04 0.04 0.04 0.05 0.06 0.08 0.10 0.10 0.10
0.05 0.05 0.04 0.03 0.03 0.02 0.02 0.02 0.03 0.02 0.02 0.02 0.03 0.02 0.02 0.02 0.02 0.02 0.03 0.02 0.01 0.01 0.02 0.01 0.01 0.01 0.01 0.01 0.02 0.02 0.01 0.02 0.03 0.04 0.03 0.03 0.04 0.04 0.04 0.06 0.07 0.08 0.09
0.06 0.06 0.05 0.05 0.04 0.04 0.04 0.03 0.02 0.02 0.03 0.03 0.04 0.04 0.03 0.03 0.03 0.04 0.02 0.01 0.01 0.01 0.01 0.01 0.00 0.00 0.00 0.01 0.02 0.01 0.02 0.03 0.03 0.04 0.05 0.04 0.04 0.05 0.05 0.05 0.06 0.07 0.07
0.04 0.04 0.04 0.04 0.03 0.03 0.02 0.01 0.01 0.02 0.02 0.02 0.03 0.03 0.03 0.02 0.03 0.02 0.01 0.01 0.02 0.02 0.01 0.01 0.01 0.00 0.00 0.00 0.01 0.01 0.01 0.03 0.04 0.05 0.05 0.05 0.05 0.04 0.04 0.04 0.05 0.06 0.07
0.03 0.04 0.03 0.03 0.03 0.02 0.02 0.01 0.01 0.01 0.01 0.01 0.01 0.01 0.02 0.02 0.01 0.01 0.01 0.01 0.02 0.03 0.03 0.02 0.01 0.01 0.00 0.00 0.00 0.00 0.01 0.01 0.03 0.04 0.05 0.04 0.04 0.05 0.06 0.05 0.05 0.08 0.09
0.02 0.02 0.03 0.02 0.02 0.02 0.02 0.02 0.01 0.01 0.01 0.01 0.01 0.01 0.01 0.01 0.01 0.01 0.01 0.02 0.02 0.02 0.03 0.02 0.01 0.00 0.00 0.00 0.00 0.00 0.01 0.01 0.01 0.02 0.03 0.03 0.03 0.03 0.05 0.05 0.06 0.07 0.07
0.02 0.02 0.03 0.03 0.02 0.02 0.02 0.02 0.02 0.02 0.01 0.01 0.01 0.01 0.01 0.00 0.00 0.00 0.01 0.02 0.02 0.03 0.02 0.02 0.01 0.00 0.00 0.00 0.00 0.00 0.01 0.01 0.01 0.01 0.02 0.02 0.03 0.02 0.03 0.03 0.04 0.04 0.04
0.02 0.02 0.03 0.03 0.03 0.03 0.03 0.03 0.03 0.02 0.02 0.02 0.03 0.01 0.00 0.00 0.00 0.00 0.01 0.02 0.03 0.03 0.03 0.02 0.01 0.00 0.00 0.00 0.00 0.00 0.01 0.01 0.01 0.01 0.02 0.02 0.03 0.03 0.03 0.03 0.04 0.04 0.04
0.03 0.02 0.03 0.03 0.03 0.05 0.02 0.02 0.01 0.01 0.01 0.02 0.02 0.01 0.00 0.00 0.01 0.01 0.02 0.02 0.02 0.03 0.02 0.01 0.02 0.01 0.00 0.00 0.01 0.01 0.01 0.01 0.01 0.01 0.02 0.02 0.03 0.03 0.04 0.05 0.05 0.05 0.05
0.03 0.03 0.03 0.03 0.04 0.04 0.03 0.02 0.01 0.01 0.02 0.02 0.02 0.01 0.00 0.01 0.01 0.01 0.01 0.01 0.01 0.02 0.02 0.01 0.01 0.01 0.00 0.01 0.01 0.01 0.01 0.01 0.01 0.02 0.03 0.04 0.05 0.05 0.06 0.07 0.07 0.07 0.05
0.02 0.03 0.03 0.03 0.02 0.02 0.02 0.02 0.01 0.01 0.01 0.01 0.02 0.02 0.01 0.01 0.01 0.00 0.00 0.00 0.01 0.01 0.01 0.01 0.01 0.01 0.01 0.01 0.01 0.02 0.01 0.01 0.01 0.02 0.04 0.05 0.07 0.09 0.09 0.10 0.11 0.10 0.07
0.03 0.04 0.04 0.04 0.02 0.02 0.02 0.02 0.01 0.01 0.02 0.02 0.01 0.02 0.01 0.00 0.00 0.00 0.00 0.00 0.01 0.01 0.01 0.02 0.03 0.03 0.03 0.04 0.03 0.03 0.02 0.02 0.02 0.04 0.05 0.06 0.10 0.12 0.11 0.11 0.11 0.11 0.08
0.04 0.05 0.05 0.04 0.03 0.03 0.02 0.02 0.03 0.04 0.04 0.04 0.03 0.03 0.02 0.01 0.01 0.00 0.00 0.00 0.00 0.01 0.01 0.02 0.03 0.03 0.05 0.06 0.07 0.06 0.04 0.04 0.05 0.07 0.07 0.08 0.10 0.12 0.11 0.11 0.10 0.08 0.08
0.04 0.04 0.04 0.04 0.04 0.06 0.05 0.03 0.03 0.03 0.04 0.04 0.04 0.04 0.03 0.01 0.01 0.00 0.00 0.00 0.00 0.00 0.01 0.02 0.02 0.02 0.03 0.05 0.06 0.07 0.07 0.06 0.07 0.08 0.09 0.09 0.08 0.08 0.08 0.10 0.10 0.07 0.05
0.05 0.03 0.03 0.03 0.05 0.07 0.06 0.05 0.04 0.03 0.04 0.04 0.03 0.02 0.02 0.01 0.01 0.01 0.00 0.00 0.00 0.01 0.01 0.02 0.02 0.01 0.02 0.03 0.04 0.04 0.04 0.04 0.05 0.06 0.06 0.06 0.06 0.05 0.05 0.06 0.09 0.09 0.04
0.06 0.05 0.04 0.05 0.05 0.05 0.05 0.04 0.05 0.05 0.05 0.04 0.02 0.01 0.01 0.01 0.00 0.00 0.00 0.00 0.00 0.00 0.01 0.01 0.01 0.02 0.03 0.02 0.03 0.03 0.03 0.03 0.02 0.03 0.03 0.04 0.04 0.04 0.03 0.02 0.04 0.05 0.04
0.06 0.05 0.05 0.04 0.03 0.03 0.03 0.03 0.04 0.04 0.03 0.03 0.02 0.02 0.01 0.01 0.00 0.00 0.00 0.00 0.00 0.00 0.01 0.01 0.02 0.02 0.02 0.02 0.02 0.02 0.02 0.02 0.01 0.02 0.02 0.02 0.03 0.03 0.02 0.01 0.02 0.02 0.02
0.05 0.04 0.03 0.02 0.02 0.02 0.03 0.02 0.01 0.01 0.01 0.02 0.02 0.01 0.01 0.01 0.00 0.00 0.00 0.00 0.00 0.00 0.00 0.01 0.01 0.01 0.02 0.02 0.01 0.01 0.00 0.00 0.00 0.00 0.01 0.01 0.01 0.00 0.00 0.00 0.01 0.01 0.01
0.04 0.03 0.03 0.02 0.02 0.01 0.01 0.01 0.00 0.00 0.00 0.00 0.00 0.00 0.00 0.00 0.00 0.00 0.00 0.00 0.00 0.00 0.01 0.00 0.00 0.00 0.01 0.01 0.01 0.00 0.00 0.00 0.00 0.00 0.00 0.00 0.00 0.00 0.00 0.00 0.00 0.00 0.01
0.05 0.04 0.04 0.04 0.04 0.02 0.01 0.00 0.00 0.00 0.00 0.00 0.00 0.00 0.00 0.00 0.00 0.00 0.00 0.00 0.00 0.00 0.01 0.00 0.00 0.00 0.00 0.00 0.00 0.00 0.00 0.00 0.00 0.00 0.00 0.00 0.00 0.00 0.00 0.00 0.00 0.00 0.01
MSLP
1013.84 1013.81 1013.80 1013.80 1013.83 1013.88 1013.96 1014.08 1014.25 1014.47 1014.75 1015.05 1015.38 1015.71 1016.01 1016.28 1016.49 1016.64 1016.75 1016.84 1016.92 1017.02 1017.16 1017.35 1017.59 1017.87 1018.16 1018.45 1018.70 1018.90 1019.05 1019.14 1019.18 1019.19 1019.18 1019.16 1019.15 1019.12 1019.09 1019.04 1018.96 1018.85 1018.72
1013.60 1013.68 1013.77 1013.85 1013.91 1013.97 1014.03 1014.13 1014.27 1014.48 1014.75 1015.07 1015.41 1015.74 1016.05 1016.29 1016.47 1016.58 1016.64 1016.69 1016.74 1016.84 1017.00 1017.23 1017.51 1017.83 1018.16 1018.47 1018.74 1018.94 1019.08 1019.16 1019.21 1019.23 1019.25 1019.26 1019.28 1019.29 1019.28 1019.23 1019.13 1018.99 1018.82
1013.27 1013.48 1013.69 1013.87 1014.00 1014.10 1014.18 1014.28 1014.41 1014.61 1014.88 1015.20 1015.55 1015.89 1016.19 1016.42 1016.57 1016.65 1016.68 1016.70 1016.73 1016.82 1016.98 1017.22 1017.52 1017.86 1018.19 1018.50 1018.75 1018.94 1019.07 1019.15 1019.20 1019.25 1019.30 1019.36 1019.43 1019.49 1019.51 1019.48 1019.39 1019.24 1019.05
1012.92 1013.26 1013.60 1013.90 1014.14 1014.30 1014.43 1014.54 1014.68 1014.88 1015.14 1015.46 1015.81 1016.15 1016.44 1016.67 1016.80 1016.87 1016.88 1016.88 1016.90 1016.98 1017.13 1017.36 1017.65 1017.96 1018.27 1018.54 1018.76 1018.91 1019.02 1019.09 1019.15 1019.22 1019.31 1019.42 1019.55 1019.66 1019.73 1019.74 1019.67 1019.54 1019.36
1012.62 1013.09 1013.56 1013.99 1014.34 1014.59 1014.77 1014.91 1015.07 1015.26 1015.51 1015.82 1016.15 1016.48 1016.77 1016.99 1017.13 1017.19 1017.21 1017.21 1017.23 1017.30 1017.44 1017.64 1017.89 1018.15 1018.40 1018.61 1018.76 1018.86 1018.92 1018.97 1019.03 1019.11 1019.24 1019.40 1019.57 1019.74 1019.86 1019.92 1019.89 1019.80 1019.65
1012.43 1013.00 1013.60 1014.15 1014.61 1014.95 1015.19 1015.38 1015.54 1015.72 1015.95 1016.23 1016.54 1016.86 1017.14 1017.36 1017.51 1017.59 1017.63 1017.65 1017.68 1017.75 1017.86 1018.03 1018.21 1018.40 1018.57 1018.69 1018.76 1018.79 1018.80 1018.81 1018.84 1018.93 1019.07 1019.26 1019.48 1019.68 1019.86 1019.96 1020.00 1019.96 1019.87
1012.34 1013.00 1013.71 1014.38 1014.93 1015.35 1015.66 1015.87 1016.04 1016.21 1016.42 1016.67 1016.95 1017.24 1017.52 1017.75 1017.92 1018.04 1018.11 1018.16 1018.20 1018.27 1018.36 1018.48 1018.60 1018.70 1018.77 1018.79 1018.77 1018.71 1018.65 1018.61 1018.61 1018.68 1018.82 1019.02 1019.26 1019.49 1019.70 1019.86 1019.95 1019.98 1019.98
1012.35 1013.08 1013.87 1014.61 1015.25 1015.74 1016.10 1016.34 1016.52 1016.68 1016.86 1017.08 1017.34 1017.62 1017.89 1018.14 1018.34 1018.49 1018.60 1018.69 1018.76 1018.82 1018.89 1018.95 1019.00 1019.01 1018.98 1018.90 1018.78 1018.64 1018.50 1018.40 1018.36 1018.40 1018.52 1018.71 1018.94 1019.19 1019.42 1019.62 1019.77 1019.88 1019.96
1012.43 1013.19 1014.03 1014.83 1015.52 1016.06 1016.45 1016.73 1016.92 1017.08 1017.25 1017.46 1017.70 1017.97 1018.25 1018.51 1018.75 1018.94 1019.09 1019.21 1019.30 1019.36 1019.40 1019.42 1019.39 1019.31 1019.19 1019.02 1018.81 1018.59 1018.39 1018.23 1018.15 1018.15 1018.23 1018.39 1018.60 1018.84 1019.08 1019.30 1019.50 1019.69 1019.87
1012.55 1013.31 1014.15 1014.97 1015.69 1016.26 1016.69 1016.99 1017.21 1017.39 1017.58 1017.79 1018.03 1018.31 1018.60 1018.89 1019.15 1019.38 1019.56 1019.70 1019.80 1019.86 1019.87 1019.84 1019.75 1019.60 1019.39 1019.14 1018.87 1018.58 1018.33 1018.13 1018.00 1017.96 1018.00 1018.12 1018.30 1018.51 1018.74 1018.98 1019.22 1019.47 1019.73
1012.69 1013.43 1014.24 1015.04 1015.75 1016.34 1016.79 1017.13 1017.39 1017.61 1017.83 1018.07 1018.34 1018.63 1018.95 1019.26 1019.55 1019.80 1020.00 1020.16 1020.26 1020.30 1020.28 1020.20 1020.06 1019.85 1019.59 1019.29 1018.97 1018.65 1018.36 1018.13 1017.97 1017.89 1017.89 1017.96 1018.09 1018.27 1018.47 1018.71 1018.97 1019.26 1019.60
1012.89 1013.56 1014.31 1015.05 1015.74 1016.32 1016.79 1017.17 1017.48 1017.76 1018.03 1018.32 1018.63 1018.96 1019.30 1019.63 1019.94 1020.20 1020.41 1020.56 1020.65 1020.67 1020.63 1020.51 1020.33 1020.09 1019.79 1019.46 1019.12 1018.79 1018.48 1018.23 1018.05 1017.94 1017.90 1017.93 1018.01 1018.14 1018.31 1018.52 1018.78 1019.10 1019.48
1013.17 1013.75 1014.41 1015.08 1015.71 1016.27 1016.76 1017.18 1017.55 1017.89 1018.23 1018.58 1018.94 1019.31 1019.67 1020.01 1020.32 1020.58 1020.78 1020.92 1020.99 1020.99 1020.92 1020.78 1020.57 1020.31 1020.00 1019.67 1019.32 1018.99 1018.69 1018.44 1018.24 1018.10 1018.02 1018.00 1018.02 1018.10 1018.22 1018.40 1018.64 1018.96 1019.36
1013.57 1014.05 1014.60 1015.18 1015.74 1016.28 1016.77 1017.22 1017.64 1018.05 1018.46 1018.87 1019.27 1019.67 1020.04 1020.38 1020.68 1020.92 1021.10 1021.22 1021.26 1021.25 1021.16 1021.01 1020.79 1020.53 1020.23 1019.90 1019.57 1019.25 1018.95 1018.70 1018.49 1018.33 1018.21 1018.13 1018.10 1018.11 1018.18 1018.31 1018.53 1018.83 1019.22
1014.13 1014.50 1014.94 1015.43 1015.92 1016.41 1016.90 1017.37 1017.84 1018.31 1018.77 1019.22 1019.65 1020.06 1020.43 1020.75 1021.02 1021.23 1021.37 1021.46 1021.49 1021.46 1021.36 1021.21 1021.00 1020.75 1020.46 1020.15 1019.84 1019.53 1019.25 1018.99 1018.76 1018.57 1018.40 1018.28 1018.19 1018.14 1018.15 1018.24 1018.41 1018.68 1019.06
1014.85 1015.13 1015.47 1015.86 1016.29 1016.74 1017.21 1017.70 1018.20 1018.70 1019.19 1019.66 1020.09 1020.48 1020.83 1021.11 1021.33 1021.50 1021.61 1021.67 1021.68 1021.63 1021.54 1021.40 1021.21 1020.98 1020.71 1020.42 1020.12 1019.83 1019.54 1019.27 1019.02 1018.79 1018.59 1018.41 1018.26 1018.16 1018.12 1018.16 1018.29 1018.53 1018.88
1015.71 1015.91 1016.18 1016.49 1016.86 1017.28 1017.73 1018.22 1018.73 1019.23 1019.73 1020.19 1020.60 1020.95 1021.24 1021.47 1021.64 1021.75 1021.83 1021.86 1021.85 1021.81 1021.72 1021.60 1021.43 1021.22 1020.98 1020.70 1020.42 1020.12 1019.82 1019.53 1019.26 1018.99 1018.75 1018.53 1018.34 1018.19 1018.11 1018.11 1018.20 1018.41 1018.73
1016.64 1016.81 1017.02 1017.29 1017.62 1018.00 1018.44 1018.92 1019.42 1019.91 1020.38 1020.80 1021.17 1021.46 1021.68 1021.84 1021.95 1022.01 1022.04 1022.05 1022.04 1022.00 1021.93 1021.82 1021.68 1021.49 1021.27 1021.01 1020.72 1020.42 1020.10 1019.79 1019.49 1019.20 1018.92 1018.67 1018.45 1018.28 1018.17 1018.14 1018.21 1018.39 1018.69
1017.59 1017.74 1017.93 1018.17 1018.48 1018.85 1019.28 1019.74 1020.22 1020.68 1021.11 1021.48 1021.78 1022.00 1022.15 1022.24 1022.28 1022.30 1022.29 1022.28 1022.26 1022.23 1022.18 1022.09 1021.97 1021.80 1021.59 1021.33 1021.05 1020.74 1020.41 1020.09 1019.76 1019.45 1019.16 1018.90 1018.67 1018.48 1018.37 1018.33 1018.39 1018.55 1018.82
1018.49 1018.64 1018.83 1019.07 1019.37 1019.73 1020.15 1020.59 1021.05 1021.48 1021.86 1022.17 1022.40 1022.56 1022.64 1022.66 1022.65 1022.62 1022.59 1022.56 1022.54 1022.52 1022.48 1022.41 1022.31 1022.15 1021.95 1021.70 1021.41 1021.09 1020.76 1020.43 1020.11 1019.79 1019.51 1019.25 1019.03 1018.85 1018.75 1018.71 1018.76 1018.91 1019.15
1019.29 1019.45 1019.65 1019.89 1020.19 1020.55 1020.96 1021.39 1021.83 1022.22 1022.56 1022.82 1023.00 1023.09 1023.12 1023.09 1023.04 1022.99 1022.94 1022.90 1022.88 1022.86 1022.83 1022.78 1022.68 1022.54 1022.34 1022.09 1021.80 1021.49 1021.17 1020.84 1020.53 1020.24 1019.97 1019.74 1019.54 1019.39 1019.30 1019.28 1019.33 1019.46 1019.67
1019.98 1020.14 1020.34 1020.59 1020.89 1021.25 1021.65 1022.07 1022.48 1022.85 1023.15 1023.38 1023.51 1023.58 1023.57 1023.52 1023.45 1023.38 1023.33 1023.29 1023.27 1023.26 1023.23 1023.18 1023.08 1022.94 1022.74 1022.50 1022.22 1021.92 1021.61 1021.31 1021.03 1020.76 1020.53 1020.34 1020.18 1020.06 1019.99 1019.98 1020.03 1020.14 1020.31
1020.54 1020.70 1020.89 1021.13 1021.43 1021.78 1022.17 1022.57 1022.96 1023.31 1023.59 1023.80 1023.92 1023.97 1023.96 1023.91 1023.85 1023.78 1023.74 1023.70 1023.69 1023.67 1023.64 1023.58 1023.48 1023.34 1023.14 1022.90 1022.63 1022.35 1022.07 1021.80 1021.55 1021.33 1021.14 1020.98 1020.86 1020.77 1020.72 1020.71 1020.74 1020.83 1020.96
1021.00 1021.13 1021.31 1021.53 1021.81 1022.14 1022.51 1022.90 1023.27 1023.60 1023.87 1024.08 1024.21 1024.27 1024.27 1024.25 1024.21 1024.16 1024.13 1024.11 1024.09 1024.08 1024.04 1023.97 1023.86 1023.70 1023.50 1023.27 1023.01 1022.75 1022.49 1022.25 1022.04 1021.86 1021.71 1021.58 1021.49 1021.41 1021.37 1021.35 1021.37 1021.41 1021.49
1021.38 1021.48 1021.62 1021.82 1022.07 1022.37 1022.71 1023.07 1023.42 1023.74 1024.01 1024.22 1024.37 1024.46 1024.50 1024.51 1024.51 1024.50 1024.49 1024.48 1024.47 1024.44 1024.39 1024.30 1024.18 1024.01 1023.80 1023.57 1023.32 1023.08 1022.84 1022.63 1022.45 1022.29 1022.16 1022.06 1021.97 1021.90 1021.85 1021.81 1021.80 1021.80 1021.83
1021.70 1021.77 1021.87 1022.03 1022.25 1022.51 1022.82 1023.14 1023.46 1023.76 1024.03 1024.25 1024.42 1024.55 1024.63 1024.69 1024.73 1024.76 1024.77 1024.78 1024.77 1024.74 1024.67 1024.57 1024.42 1024.24 1024.03 1023.79 1023.55 1023.32 1023.10 1022.90 1022.73 1022.58 1022.46 1022.35 1022.26 1022.17 1022.09 1022.03 1021.98 1021.95 1021.94
Thickness
5694 5694 5692 5691 5689 5688 5686 5685 5684 5684 5683 5682 5679 5676 5672 5672 5671 5669 5668 5667 5667 5667 5667 5666 5665 5665 5665 5663 5663 5662 5661 5661 5661 5660 5659 5659 5661 5662 5663 5663 5664 5665 5666
5687 5686 5686 5684 5682 5681 5679 5678 5677 5676 5675 5674 5672 5669 5665 5664 5663 5661 5660 5660 5660 5659 5658 5657 5657 5657 5656 5655 5654 5654 5653 5653 5652 5651 5649 5648 5650 5652 5653 5654 5655 5656 5657
5683 5681 5679 5677 5676 5674 5673 5673 5670 5669 5668 5666 5664 5661 5658 5656 5655 5653 5652 5651 5651 5651 5650 5649 5648 5647 5647 5646 5646 5645 5645 5644 5644 5643 5642 5640 5641 5640 5642 5643 5644 5646 5648
5681 5677 5674 5672 5670 5668 5667 5665 5663 5662 5659 5657 5655 5653 5649 5646 5644 5642 5642 5642 5642 5642 5641 5640 5640 5639 5638 5638 5638 5637 5637 5637 5636 5635 5634 5634 5634 5632 5632 5633 5634 5636 5638
5679 5674 5670 5667 5664 5662 5659 5657 5656 5653 5650 5647 5646 5644 5641 5638 5636 5634 5634 5633 5633 5633 5632 5632 5631 5630 5630 5630 5630 5629 5629 5628 5628 5627 5626 5626 5625 5625 5625 5625 5625 5626 5628
5675 5670 5666 5662 5658 5655 5652 5650 5647 5644 5641 5638 5637 5635 5632 5630 5628 5626 5625 5623 5623 5623 5623 5623 5622 5622 5621 5621 5621 5620 5620 5620 5620 5620 5620 5619 5619 5618 5618 5617 5616 5616 5618
5672 5666 5660 5656 5652 5648 5644 5641 5639 5635 5632 5630 5628 5626 5624 5621 5619 5617 5615 5614 5613 5613 5613 5613 5613 5612 5612 5612 5611 5612 5612 5612 5612 5612 5612 5612 5612 5612 5611 5610 5609 5608 5608
5668 5662 5657 5651 5646 5641 5637 5633 5630 5626 5624 5622 5619 5617 5615 5612 5610 5609 5607 5605 5604 5603 5603 5604 5603 5603 5603 5603 5603 5604 5603 5604 5604 5604 5604 5604 5604 5605 5605 5604 5603 5602 5600
5663 5657 5651 5645 5640 5635 5630 5625 5621 5618 5615 5613 5610 5607 5605 5602 5601 5599 5598 5596 5595 5595 5594 5594 5594 5594 5594 5595 5595 5596 5596 5596 5595 5596 5596 5596 5596 5597 5597 5597 5597 5597 5595
5657 5651 5645 5639 5633 5628 5622 5617 5613 5609 5606 5604 5601 5598 5596 5593 5591 5590 5588 5586 5585 5585 5585 5584 5584 5585 5585 5586 5586 5587 5587 5587 5587 5587 5588 5588 5589 5589 5589 5589 5589 5590 5589
5651 5644 5637 5631 5625 5619 5614 5609 5605 5600 5597 5594 5591 5588 5585 5583 5581 5579 5577 5576 5575 5575 5574 5574 5575 5576 5576 5577 5577 5578 5579 5579 5578 5579 5579 5580 5580 5581 5581 5581 5581 5581 5581
5643 5636 5630 5623 5617 5611 5606 5600 5596 5592 5588 5585 5583 5579 5576 5573 5570 5568 5567 5566 5566 5565 5564 5565 5566 5566 5567 5567 5568 5568 5569 5570 5570 5570 5571 5571 5571 5571 5572 5573 5573 5573 5573
5635 5628 5621 5615 5608 5602 5597 5592 5588 5583 5579 5576 5574 5570 5566 5563 5561 5560 5558 5557 5556 5555 5555 5556 5556 5557 5557 5557 5558 5559 5560 5560 5561 5561 5562 5562 5563 5563 5563 5564 5565 5565 5565
5627 5620 5613 5606 5600 5594 5589 5584 5579 5575 5571 5568 5565 5561 5557 5555 5553 5551 5550 5548 5547 5547 5547 5547 5548 5548 5548 5548 5549 5550 5551 5551 5552 5553 5554 5554 5555 5555 5556 5557 5557 5557 5557
5620 5614 5607 5600 5593 5587 5582 5577 5572 5567 5564 5561 5557 5553 5550 5548 5546 5544 5542 5541 5540 5539 5539 5539 5540 5540 5540 5540 5541 5542 5542 5543 5544 5546 5547 5548 5549 5549 5550 5551 5551 5551 5551
5615 5609 5602 5595 5588 5582 5576 5570 5566 5561 5558 5555 5551 5547 5544 5541 5539 5537 5536 5535 5534 5533 5532 5532 5532 5532 5532 5533 5534 5535 5535 5536 5536 5538 5539 5541 5542 5543 5544 5545 5546 5546 5546
5610 5603 5596 5590 5583 5577 5571 5565 5560 5556 5552 5549 5546 5542 5539 5536 5534 5532 5530 5529 5527 5526 5525 5525 5525 5525 5525 5526 5528 5529 5529 5529 5529 5530 5532 5534 5535 5536 5538 5539 5540 5540 5540
5604 5597 5590 5584 5578 5572 5566 5560 5556 5552 5548 5544 5541 5538 5535 5531 5529 5527 5525 5524 5522 5521 5520 5519 5519 5519 5519 5521 5522 5523 5524 5523 5523 5524 5525 5526 5528 5530 5531 5533 5533 5534 5534
5599 5592 5585 5579 5573 5567 5562 5556 5552 5547 5544 5540 5537 5534 5530 5527 5525 5523 5521 5519 5518 5517 5516 5515 5514 5514 5515 5516 5517 5518 5518 5518 5518 5519 5520 5521 5523 5523 5525 5527 5528 5528 5528
5593 5586 5580 5574 5568 5562 5557 5553 5548 5543 5540 5536 5533 5530 5527 5524 5521 5519 5517 5515 5514 5513 5512 5512 5511 5511 5511 5512 5513 5514 5514 5513 5513 5515 5516 5517 5518 5519 5521 5522 5524 5524 5524
5588 5581 5575 5569 5564 5558 5554 5549 5544 5540 5537 5534 5530 5527 5524 5521 5519 5516 5514 5512 5511 5510 5509 5509 5509 5509 5509 5510 5511 5511 5511 5510 5511 5511 5512 5513 5515 5516 5517 5518 5519 5520 5521
5582 5576 5571 5564 5559 5555 5551 5546 5541 5538 5535 5531 5528 5525 5522 5520 5518 5515 5512 5510 5509 5508 5507 5507 5507 5508 5508 5508 5509 5509 5509 5509 5509 5510 5510 5511 5513 5514 5516 5517 5517 5519 5520
5578 5572 5567 5562 5556 5553 5549 5544 5540 5537 5533 5529 5526 5524 5521 5519 5516 5514 5511 5510 5508 5507 5506 5506 5506 5507 5508 5508 5509 5509 5509 5510 5509 5510 5511 5512 5514 5515 5516 5517 5517 5518 5518
5574 5569 5564 5559 5554 5550 5547 5543 5539 5536 5532 5528 5525 5523 5520 5518 5515 5513 5512 5510 5509 5508 5507 5507 5507 5507 5508 5509 5510 5510 5511 5511 5511 5512 5513 5514 5515 5516 5516 5517 5518 5518 5518
5571 5567 5562 5558 5554 5549 5546 5542 5539 5535 5532 5528 5525 5523 5520 5518 5516 5514 5512 5512 5511 5509 5509 5509 5509 5509 5510 5511 5511 5512 5512 5513 5513 5514 5515 5516 5517 5518 5519 5519 5519 5520 5520
5569 5565 5561 5557 5553 5550 5546 5543 5540 5537 5533 5529 5526 5524 5522 5519 5517 5516 5515 5515 5514 5514 5514 5513 5513 5513 5514 5515 5515 5516 5516 5516 5516 5516 5517 5517 5518 5519 5519 5520 5521 5522 5523